[Iaude] MPEC B89: 2024 BF2 [a=2.84,e=0.63,i=4.1,H=25.6]
    mpec at marsden.cfa.harvard.edu 
    mpec at marsden.cfa.harvard.edu
       
    Sun Jan 21 21:37:13 EST 2024
    
    
  
M.P.E.C. 2024-B89                              Issued 2024 January 22, 02:35 UT
     The Minor Planet Electronic Circulars contain information on unusual
         minor planets, routine data on comets and natural satellites,
         and occasional editorial announcements.  They are published
    on behalf of Division F of the International Astronomical Union by the
          Minor Planet Center, Smithsonian Astrophysical Observatory,
                          Cambridge, MA 02138, U.S.A.
			  
             Prepared using the Tamkin Foundation Computer Network
                              MPC at CFA.HARVARD.EDU
            URL https://www.minorplanetcenter.net/    ISSN 1523-6714
                                    2024 BF2                                    
Observations:
     K24B02F*1C2024 01 19.18944507 35 26.610+34 37 33.24         21.62GVEB089G96
     K24B02F 1C2024 01 19.19504307 35 31.002+34 37 40.51         20.63GVEB089G96
     K24B02F 1C2024 01 19.20064607 35 35.401+34 37 47.96         20.50GVEB089G96
     K24B02F 1C2024 01 19.20625507 35 39.754+34 37 54.44         20.87GVEB089G96
     K24B02F KC2024 01 19.34360407 37 26.018+34 40 29.14         21.04GVEB089I52
     K24B02F KC2024 01 19.34480607 37 26.954+34 40 30.54         20.76GVEB089I52
     K24B02F KC2024 01 19.34601407 37 27.894+34 40 31.37         20.92GVEB089I52
     K24B02F KC2024 01 19.34721607 37 28.852+34 40 32.63         20.85GVEB089I52
     K24B02F 1C2024 01 20.44624407 52 01.020+34 55 19.49         21.10GVEB089G96
     K24B02F 1C2024 01 20.44700607 52 01.650+34 55 19.60         20.88GVEB089G96
     K24B02F 1C2024 01 20.44776807 52 02.212+34 55 19.99         20.91GVEB089G96
     K24B02F 1C2024 01 20.44853007 52 02.651+34 55 20.17         20.92GVEB089G96
Observer details:
G96 Mt. Lemmon Survey.  Observer A. R. Gibbs.  Measurers T. Beuden, V. F.
    Carvajal, D. Fay, J. B. Fazekas, D. C. Fuls, A. R. Gibbs, A. D. Grauer, H.
    Groeller, J. K. Hogan, R. A. Kowalski, S. M. Larson, G. J. Leonard, D.
    Rankin, R. L. Seaman, F. C. Shelly, K. W. Wierzchos.  1.5-m reflector +
    10K CCD.
I52 Steward Observatory, Mt. Lemmon Station.  Observer R. A. Kowalski.
    Measurers E. C. Beshore, D. Fay, J. B. Fazekas, D. C. Fuls, A. R. Gibbs,
    A. D. Grauer, H. Groeller, J. K. Hogan, R. A. Kowalski, S. M. Larson, G.
    J. Leonard, D. Rankin, R. L. Seaman, F. C. Shelly, K. W. Wierzchos.  1.0-m
    prime focus + CCD.
Orbital elements:
2024 BF2                                                 Earth MOID = 0.0656 AU
Epoch 2023 Sept. 13.0 TT = JDT 2460200.5                Alexandersen            
M 336.18782              (2000.0)            P               Q                  
n   0.20591351     Peri.  359.20769     -0.22674755     -0.97146228             
a   2.8401819      Node   103.89594     +0.89397893     -0.23596218             
e   0.6302950      Incl.    4.11257     +0.38650642     -0.02414313             
P   4.79           H   25.67          G   0.15           U   9                  
Residuals in seconds of arc
240119 G96  0.0   0.2+    240119 I52  0.2-  0.0     240120 G96  0.0   0.0
240119 G96  0.1+  0.1+    240119 I52  0.1-  0.2+    240120 G96  0.7+  0.1-
240119 G96  0.2+  0.3+    240119 I52  0.0   0.1-    240120 G96  0.6+  0.0
240119 G96  0.2-  0.4-    240119 I52  0.4+  0.0     240120 G96  1.0-  0.1-
Ephemeris:
2024 BF2                 a,e,i = 2.84, 0.63, 4                   q = 1.0500
Date    TT    R. A. (2000) Decl.     Delta      r    Elong.  Phase     V
2023 12 23    03 06 08.5 +05 30 04   0.1166  1.0679   134.0    41.5    22.8
...
2024 01 07    04 47 14.8 +22 04 13   0.07821 1.0501   147.4    30.3    21.6
...
2024 01 15    06 34 50.9 +32 10 19   0.07603 1.0559   161.3    17.4    21.1
...
2024 01 21    07 59 10.4 +35 00 10   0.08594 1.0672   165.0    13.8    21.3
2024 01 22    08 11 26.4 +35 03 58   0.08842 1.0697   164.8    13.9    21.3
2024 01 23    08 23 01.2 +35 02 39   0.09111 1.0723   164.6    14.1    21.4
...
2024 01 29    09 18 04.9 +33 46 41   0.1108  1.0910   162.5    15.7    21.9
...
2024 02 06    10 00 58.8 +31 07 48   0.1444  1.1239   161.6    16.1    22.6
...
2024 02 21    10 34 39.1 +26 45 47   0.2244  1.2056   163.5    13.5    23.6
M. P. C. Staff               (C) Copyright 2024 MPC           M.P.E.C. 2024-B89
    
    
More information about the Iaude
mailing list